N9CQL Weather Reports


Display with metric or nautical units.
time (UTC)temp
F
wind
direction
speed
MPH
gust
MPH
rain 1hr
in
rain 24hr
in
rain mn
in
humidity
%
barometer
mb
20260509123618 55 34 0.0 0.0 0.00 0.00 0.00 87 1003.2
20260509123114 54 263 1.0 2.0 0.00 0.00 0.00 89 1003.4
20260509122610 54 111 0.0 1.0 0.00 0.00 0.00 89 1002.9
20260509122108 54 111 0.0 0.0 0.00 0.00 0.00 90 1002.9
20260509121604 54 258 0.0 0.0 0.00 0.00 0.00 91 1002.9
20260509121101 53 198 0.0 0.0 0.00 0.00 0.00 91 1002.9
20260509120559 53 226 0.0 0.0 0.00 0.00 0.00 92 1003.1
20260509120058 53 163 0.0 0.0 0.00 0.00 0.00 92 1002.6
20260509115554 52 206 0.0 0.0 0.00 0.00 0.00 92 1002.8
20260509115052 52 231 0.0 0.0 0.00 0.00 0.00 92 1002.9
20260509114550 52 106 0.0 0.0 0.00 0.00 0.00 92 1002.7
20260509114049 52 242 0.0 1.0 0.00 0.00 0.00 92 1002.6
20260509113546 52 152 0.0 0.0 0.00 0.00 0.00 92 1002.6
20260509113044 52 164 0.0 0.0 0.00 0.00 0.00 92 1002.9
20260509112540 52 78 0.0 0.0 0.00 0.00 0.00 92 1002.5
20260509112037 52 49 0.0 0.0 0.00 0.00 0.00 92 1002.3
20260509111534 52 77 0.0 0.0 0.00 0.00 0.00 92 1002.4
20260509111031 52 106 0.0 0.0 0.00 0.00 0.00 92 1002.3
20260509110528 52 144 0.0 0.0 0.00 0.00 0.00 92 1002.3
20260509110025 52 118 0.0 0.0 0.00 0.00 0.00 92 1002.2
20260509105524 52 130 0.0 0.0 0.00 0.00 0.00 92 1002.5
20260509105021 52 122 0.0 0.0 0.00 0.00 0.00 92 1002.3
20260509104517 52 158 0.0 0.0 0.00 0.00 0.00 92 1002.3
20260509104014 52 133 0.0 1.0 0.00 0.00 0.00 92 1002.6
20260509103512 52 112 0.0 0.0 0.00 0.00 0.00 92 1002.5
20260509103010 52 110 0.0 0.0 0.00 0.00 0.00 92 1002.3
20260509102507 53 151 0.0 0.0 0.00 0.00 0.00 92 1002.7
20260509102004 52 106 0.0 0.0 0.00 0.00 0.00 92 1002.5
20260509101500 53 97 0.0 0.0 0.00 0.00 0.00 92 1002.6
20260509100957 53 102 0.0 0.0 0.00 0.00 0.00 91 1002.6
20260509100454 53 187 1.0 1.0 0.00 0.00 0.00 91 1002.6
20260509095951 53 107 0.0 0.0 0.00 0.00 0.00 91 1002.5
20260509095448 53 89 0.0 0.0 0.00 0.00 0.00 91 1002.8
20260509094945 53 38 0.0 0.0 0.00 0.00 0.00 91 1002.7
20260509094442 53 100 0.0 0.0 0.00 0.00 0.00 91 1002.6
20260509093939 53 96 0.0 0.0 0.00 0.00 0.00 91 1002.8
20260509093437 53 270 0.0 0.0 0.00 0.00 0.00 91 1003.1
20260509092935 53 104 0.0 0.0 0.00 0.00 0.00 91 1002.9
20260509092432 53 140 0.0 0.0 0.00 0.00 0.00 91 1002.8
20260509091931 53 185 1.0 2.0 0.00 0.00 0.00 91 1003.2
20260509091427 53 157 0.0 0.0 0.00 0.00 0.00 91 1003.1
20260509090924 53 144 0.0 0.0 0.00 0.00 0.00 91 1003.4
20260509090421 53 147 0.0 0.0 0.00 0.00 0.00 91 1003.3
20260509085919 53 200 0.0 0.0 0.00 0.00 0.00 91 1003.2
20260509085416 53 162 0.0 1.0 0.00 0.00 0.00 90 1003.3
20260509084912 53 221 0.0 0.0 0.00 0.00 0.00 90 1003.5
20260509084409 53 306 1.0 2.0 0.00 0.00 0.00 90 1003.4
20260509083907 53 273 0.0 0.0 0.00 0.00 0.00 90 1003.4
20260509083404 53 121 0.0 0.0 0.00 0.00 0.00 90 1003.3
20260509082900 53 183 0.0 1.0 0.00 0.00 0.00 90 1003.4
20260509082357 53 254 1.0 1.0 0.00 0.00 0.00 90 1002.9
20260509081854 53 191 0.0 1.0 0.00 0.00 0.00 90 1003.3
20260509081351 53 179 1.0 1.0 0.00 0.00 0.00 89 1002.9
20260509080849 53 277 2.0 2.0 0.00 0.00 0.00 89 1003.2
20260509080347 53 242 1.0 2.0 0.00 0.00 0.00 89 1002.9
20260509075845 53 7 0.0 0.0 0.00 0.00 0.00 89 1003.2
20260509075341 53 160 1.0 2.0 0.00 0.00 0.00 89 1003.5
20260509074839 53 291 1.0 1.0 0.00 0.00 0.00 89 1003.5
20260509074336 53 163 1.0 1.0 0.00 0.00 0.00 88 1003.5
20260509073832 53 125 0.0 0.0 0.00 0.00 0.00 88 1003.3
20260509073329 53 132 0.0 0.0 0.00 0.00 0.00 88 1003.4
20260509072826 53 87 0.0 1.0 0.00 0.00 0.00 88 1003.5
20260509072322 54 205 1.0 2.0 0.00 0.00 0.00 88 1003.7
20260509071819 54 149 1.0 1.0 0.00 0.00 0.00 88 1003.6
20260509071316 54 234 1.0 2.0 0.00 0.00 0.00 87 1003.7
20260509070813 54 216 1.0 2.0 0.00 0.00 0.00 87 1003.8
20260509070310 54 124 0.0 0.0 0.00 0.00 0.00 87 1003.9
20260509065806 54 117 0.0 1.0 0.00 0.00 0.00 87 1003.9
20260509065306 54 94 0.0 1.0 0.00 0.00 0.00 87 1004.1
20260509064758 54 282 1.0 1.0 0.00 0.00 0.00 86 1003.9
20260509064256 55 226 1.0 1.0 0.00 0.00 0.00 86 1004.2
20260509063753 55 358 1.0 1.0 0.00 0.00 0.00 86 1003.9
20260509063249 55 298 1.0 2.0 0.00 0.00 0.00 86 1004.0
20260509062747 55 88 0.0 0.0 0.00 0.00 0.00 86 1004.3
20260509062244 55 138 1.0 1.0 0.00 0.00 0.00 85 1004.2
20260509061741 55 178 0.0 1.0 0.00 0.00 0.00 86 1004.2
20260509061239 55 31 1.0 1.0 0.00 0.00 0.00 85 1004.3
20260509060736 55 108 1.0 1.0 0.00 0.00 0.00 86 1004.1
20260509060232 55 140 0.0 1.0 0.00 0.00 0.00 85 1004.5
20260509055728 55 170 1.0 1.0 0.00 0.00 0.00 85 1004.6
20260509055224 55 214 1.0 1.0 0.00 0.00 0.00 85 1004.6
20260509054720 55 203 2.0 2.0 0.00 0.00 0.00 86 1004.5
20260509054218 55 111 1.0 1.0 0.00 0.00 0.00 86 1004.4
20260509053716 55 140 1.0 1.0 0.00 0.00 0.00 86 1004.5
20260509053213 56 52 0.0 0.0 0.00 0.00 0.00 86 1004.4
20260509052711 56 142 0.0 1.0 0.00 0.00 0.00 85 1004.4
20260509052208 56 84 0.0 0.0 0.00 0.00 0.00 85 1004.5
20260509051706 56 228 1.0 2.0 0.00 0.00 0.00 85 1004.3
20260509051203 56 95 0.0 1.0 0.00 0.00 0.00 85 1004.5
20260509050700 56 117 2.0 3.0 0.00 0.00 0.00 84 1004.6
20260509050156 56 107 1.0 2.0 0.00 0.00 0.00 84 1004.6
20260509045654 56 279 1.0 2.0 0.00 0.00 0.00 84 1004.5
20260509045150 56 5 1.0 1.0 0.00 0.00 0.00 84 1004.5
20260509044648 56 122 0.0 0.0 0.00 0.00 0.00 83 1004.7
20260509044145 56 168 0.0 0.0 0.00 0.00 0.00 83 1004.5
20260509043642 57 190 1.0 1.0 0.00 0.00 0.00 82 1004.6
20260509043137 57 168 0.0 0.0 0.00 0.00 0.00 82 1004.5
20260509042634 57 117 0.0 0.0 0.00 0.00 0.00 82 1004.3
20260509042130 57 138 0.0 0.0 0.00 0.00 0.00 81 1004.6
20260509041627 57 82 0.0 0.0 0.00 0.00 0.00 81 1004.8
20260509041124 57 199 0.0 0.0 0.00 0.00 0.00 80 1004.7
20260509040623 57 123 0.0 0.0 0.00 0.00 0.00 80 1004.6
20260509040119 57 162 0.0 0.0 0.00 0.00 0.00 79 1004.7
20260509035616 57 166 0.0 0.0 0.00 0.00 0.00 78 1004.9
20260509035112 57 101 0.0 0.0 0.00 0.00 0.00 78 1004.6
20260509034611 57 93 0.0 0.0 0.00 0.00 0.00 78 1004.9
20260509034107 57 176 0.0 0.0 0.00 0.00 0.00 77 1004.8
20260509033604 57 144 0.0 0.0 0.00 0.00 0.00 77 1004.9
20260509033101 58 60 0.0 0.0 0.00 0.00 0.00 77 1005.0
20260509032559 58 101 0.0 0.0 0.00 0.00 0.00 77 1004.7
20260509032055 58 112 0.0 0.0 0.00 0.00 0.00 77 1004.7
20260509031553 58 83 0.0 0.0 0.00 0.00 0.00 77 1004.6
20260509031050 58 84 0.0 0.0 0.00 0.00 0.00 76 1004.7
20260509030549 58 92 0.0 0.0 0.00 0.00 0.00 76 1004.8
20260509030045 58 93 0.0 0.0 0.00 0.00 0.00 75 1005.2
20260509025541 58 88 0.0 0.0 0.00 0.00 0.00 75 1004.8
20260509025037 58 85 0.0 0.0 0.00 0.00 0.00 75 1005.0
20260509024533 57 85 0.0 0.0 0.00 0.00 0.00 75 1005.2
20260509024029 56 80 0.0 0.0 0.00 0.00 0.00 76 1004.9
20260509023527 55 77 0.0 0.0 0.00 0.00 0.00 76 1005.0
20260509023024 55 77 0.0 0.0 0.00 0.00 0.00 76 1005.1
20260509022520 55 77 0.0 0.0 0.00 0.00 0.00 75 1005.1
20260509022018 55 77 0.0 0.0 0.00 0.00 0.00 75 1005.2
20260509021515 55 75 0.0 0.0 0.00 0.00 0.00 74 1005.0
20260509021012 56 75 0.0 0.0 0.00 0.00 0.00 73 1004.9
20260509020510 56 75 0.0 0.0 0.00 0.00 0.00 73 1005.1
20260509020007 56 75 0.0 0.0 0.00 0.00 0.00 73 1005.1
20260509015506 56 75 0.0 0.0 0.00 0.00 0.00 73 1005.0
20260509015002 56 75 0.0 0.0 0.00 0.00 0.00 73 1004.7
20260509014459 56 75 0.0 0.0 0.00 0.00 0.00 73 1004.7
20260509013955 57 75 0.0 0.0 0.00 0.00 0.00 73 1004.9
20260509013452 57 75 0.0 0.0 0.00 0.00 0.00 73 1004.7
20260509012948 57 75 0.0 0.0 0.00 0.00 0.00 72 1005.0
20260509012444 58 62 0.0 0.0 0.00 0.00 0.00 71 1004.7
20260509011941 58 63 0.0 0.0 0.00 0.00 0.00 71 1004.7
20260509011439 58 63 0.0 0.0 0.00 0.00 0.00 70 1004.4
20260509010937 59 63 0.0 0.0 0.00 0.00 0.00 70 1004.5
20260509010434 59 38 0.0 0.0 0.00 0.00 0.00 69 1004.6
20260509005931 59 57 0.0 0.0 0.00 0.00 0.00 69 1004.6
20260509005429 60 53 0.0 0.0 0.00 0.00 0.00 68 1004.7
20260509004928 60 73 0.0 0.0 0.00 0.00 0.00 68 1004.7
20260509004426 61 49 0.0 0.0 0.00 0.00 0.00 67 1004.7
20260509003923 61 50 0.0 0.0 0.00 0.00 0.00 67 1004.8
20260509003421 61 49 0.0 0.0 0.00 0.00 0.00 66 1004.7
20260509002917 62 49 0.0 0.0 0.00 0.00 0.00 66 1005.0
20260509002416 62 48 0.0 0.0 0.00 0.00 0.00 66 1004.9
20260509001913 62 61 0.0 0.0 0.00 0.00 0.00 64 1004.7
20260509001409 62 66 0.0 0.0 0.00 0.00 0.00 64 1004.7
20260509000906 63 66 0.0 0.0 0.00 0.00 0.00 63 1004.6
20260509000404 64 56 0.0 0.0 0.00 0.00 0.00 62 1004.9
20260508235859 64 77 0.0 0.0 0.00 0.00 0.00 63 1004.8
20260508235357 64 99 0.0 0.0 0.00 0.00 0.00 61 1004.9
20260508234854 64 69 0.0 0.0 0.00 0.00 0.00 63 1004.8
20260508234350 64 76 0.0 0.0 0.00 0.00 0.00 62 1005.0
20260508233849 65 75 0.0 0.0 0.00 0.00 0.00 61 1005.0
20260508233348 65 91 0.0 0.0 0.00 0.00 0.00 61 1004.7
20260508232844 65 335 0.0 0.0 0.00 0.00 0.00 61 1004.9
20260508232340 64 95 0.0 0.0 0.00 0.00 0.00 63 1004.8
20260508231839 65 28 0.0 0.0 0.00 0.00 0.00 61 1005.0
20260508231335 68 350 0.0 0.0 0.00 0.00 0.00 58 1004.8
20260508230832 69 286 0.0 0.0 0.00 0.00 0.00 57 1005.1
20260508230328 69 178 0.0 0.0 0.00 0.00 0.00 56 1004.7
20260508225826 68 239 0.0 0.0 0.00 0.00 0.00 58 1005.0
20260508225323 68 3 0.0 0.0 0.00 0.00 0.00 59 1004.9
20260508224821 67 345 0.0 0.0 0.00 0.00 0.00 60 1005.1
20260508224318 67 31 0.0 0.0 0.00 0.00 0.00 61 1004.9
20260508223815 65 90 0.0 0.0 0.00 0.00 0.00 63 1005.0
20260508223312 67 143 0.0 0.0 0.00 0.00 0.00 60 1005.1
20260508222810 69 164 0.0 0.0 0.00 0.00 0.00 59 1005.0
20260508222307 67 52 0.0 0.0 0.00 0.00 0.00 60 1005.0
20260508221804 67 261 0.0 0.0 0.00 0.00 0.00 62 1005.1
20260508221259 68 15 0.0 0.0 0.00 0.00 0.00 59 1004.9
20260508220755 69 147 0.0 0.0 0.00 0.00 0.00 58 1004.8
20260508220252 69 304 0.0 0.0 0.00 0.00 0.00 58 1005.1
20260508215749 66 165 0.0 0.0 0.00 0.00 0.00 61 1005.3
20260508215245 66 55 0.0 0.0 0.00 0.00 0.00 63 1005.0
20260508214743 66 15 0.0 0.0 0.00 0.00 0.00 62 1005.3
20260508214240 67 17 0.0 0.0 0.00 0.00 0.00 60 1005.1
20260508213736 67 179 0.0 0.0 0.00 0.00 0.00 61 1005.0
20260508213233 67 77 0.0 0.0 0.00 0.00 0.00 59 1005.0
20260508212729 65 65 0.0 0.0 0.00 0.00 0.00 63 1005.2
20260508212226 67 88 0.0 0.0 0.00 0.00 0.00 60 1005.1
20260508211721 69 150 0.0 0.0 0.00 0.00 0.00 54 1005.4
20260508211217 69 26 0.0 0.0 0.00 0.00 0.00 52 1005.1
20260508210715 69 69 0.0 0.0 0.00 0.00 0.00 54 1005.1
20260508210212 67 51 0.0 0.0 0.00 0.00 0.00 61 1005.1
20260508205709 68 236 0.0 0.0 0.00 0.00 0.00 56 1005.3
20260508205205 68 120 0.0 0.0 0.00 0.00 0.00 53 1005.4
20260508204701 68 56 0.0 0.0 0.00 0.00 0.00 48 1005.3
20260508204158 68 14 0.0 0.0 0.00 0.00 0.00 47 1005.2
20260508203654 67 2 0.0 0.0 0.00 0.00 0.00 48 1005.3
20260508203150 66 353 0.0 0.0 0.00 0.00 0.00 50 1005.4
20260508202646 68 161 0.0 0.0 0.00 0.00 0.00 54 1005.7
20260508202144 68 5 0.0 0.0 0.00 0.00 0.00 47 1005.6
20260508201640 71 38 0.0 0.0 0.00 0.00 0.00 47 1005.7
20260508201137 70 223 0.0 0.0 0.00 0.00 0.00 48 1005.8
20260508200634 68 147 0.0 0.0 0.00 0.00 0.00 56 1006.2
20260508200130 68 327 2.0 8.0 0.00 0.00 0.00 57 1006.2
20260508195627 67 63 0.0 0.0 0.00 0.00 0.00 59 1006.3
20260508195123 69 57 0.0 0.0 0.00 0.00 0.00 57 1006.3
20260508194620 70 255 0.0 0.0 0.00 0.00 0.00 53 1006.4
20260508194117 68 10 0.0 0.0 0.00 0.00 0.00 48 1006.4
20260508193614 68 89 0.0 0.0 0.00 0.00 0.00 47 1006.5
20260508193110 68 291 0.0 0.0 0.00 0.00 0.00 50 1006.4
20260508192607 67 43 0.0 0.0 0.00 0.00 0.00 49 1006.6
20260508192104 67 5 0.0 0.0 0.00 0.00 0.00 48 1006.6
20260508191601 68 43 0.0 0.0 0.00 0.00 0.00 48 1006.6
20260508191058 69 218 0.0 0.0 0.00 0.00 0.00 47 1006.6
20260508190555 69 234 0.0 0.0 0.00 0.00 0.00 51 1006.8
20260508190051 70 227 0.0 0.0 0.00 0.00 0.00 50 1006.9
20260508185548 70 216 0.0 0.0 0.00 0.00 0.00 49 1006.9
20260508185046 68 6 0.0 0.0 0.00 0.00 0.00 54 1006.8
20260508184543 68 110 0.0 0.0 0.00 0.00 0.00 53 1006.9
20260508184040 66 45 0.0 0.0 0.00 0.00 0.00 59 1007.2
20260508183536 66 46 0.0 0.0 0.00 0.00 0.00 55 1007.3
20260508183032 66 19 0.0 0.0 0.00 0.00 0.00 53 1007.0
20260508182529 68 14 0.0 0.0 0.00 0.00 0.00 51 1007.4
20260508182026 69 58 0.0 0.0 0.00 0.00 0.00 51 1007.6
20260508181521 69 275 0.0 0.0 0.00 0.00 0.00 50 1007.4
20260508181019 69 311 0.0 0.0 0.00 0.00 0.00 54 1007.4
20260508180515 67 323 0.0 0.0 0.00 0.00 0.00 57 1007.4
20260508180012 69 282 0.0 0.0 0.00 0.00 0.00 54 1007.6
20260508175508 69 252 0.0 0.0 0.00 0.00 0.00 56 1007.6
20260508175006 68 151 0.0 0.0 0.00 0.00 0.00 58 1007.9
20260508174503 68 246 0.0 0.0 0.00 0.00 0.00 54 1007.8
20260508174000 66 26 0.0 0.0 0.00 0.00 0.00 60 1007.9
20260508173457 67 217 0.0 0.0 0.00 0.00 0.00 58 1008.1
20260508172953 67 231 0.0 0.0 0.00 0.00 0.00 57 1007.9
20260508172450 70 235 0.0 0.0 0.00 0.00 0.00 58 1008.3
20260508171946 69 280 0.0 0.0 0.00 0.00 0.00 59 1008.3
20260508171443 69 223 0.0 3.0 0.00 0.00 0.00 56 1008.3
20260508170939 66 204 0.0 0.0 0.00 0.00 0.00 60 1008.7
20260508170437 67 66 0.0 0.0 0.00 0.00 0.00 62 1008.7
20260508165934 67 110 0.0 0.0 0.00 0.00 0.00 61 1008.3
20260508165432 66 27 0.0 0.0 0.00 0.00 0.00 59 1008.7
20260508164927 65 66 0.0 0.0 0.00 0.00 0.00 65 1009.0
20260508164425 64 48 0.0 0.0 0.00 0.00 0.00 63 1008.8
20260508163922 66 30 0.0 0.0 0.00 0.00 0.00 61 1008.8
20260508163419 65 95 0.0 0.0 0.00 0.00 0.00 63 1008.9
20260508162915 64 226 0.0 0.0 0.00 0.00 0.00 61 1009.2
20260508162413 66 50 0.0 0.0 0.00 0.00 0.00 63 1009.2
20260508161909 65 27 0.0 0.0 0.00 0.00 0.00 63 1009.4
20260508161407 65 28 0.0 0.0 0.00 0.00 0.00 64 1009.2
20260508160903 64 77 0.0 0.0 0.00 0.00 0.00 64 1009.3
20260508160403 63 205 0.0 0.0 0.00 0.00 0.00 64 1009.5
20260508155858 64 155 0.0 0.0 0.00 0.00 0.00 62 1009.5
20260508155356 62 164 0.0 0.0 0.00 0.00 0.00 64 1009.4
20260508154852 62 52 0.0 0.0 0.00 0.00 0.00 63 1009.4
20260508154350 62 145 0.0 0.0 0.00 0.00 0.00 62 1009.2
20260508153846 62 85 0.0 1.0 0.00 0.00 0.00 64 1009.4
20260508153344 62 156 0.0 0.0 0.00 0.00 0.00 64 1009.4
20260508152839 60 37 0.0 0.0 0.00 0.00 0.00 66 1009.7
20260508152336 60 145 0.0 0.0 0.00 0.00 0.00 67 1009.5
20260508151832 60 124 0.0 0.0 0.00 0.00 0.00 65 1009.8
20260508151330 59 62 0.0 0.0 0.00 0.00 0.00 66 1009.8
20260508150826 58 6 0.0 0.0 0.00 0.00 0.00 64 1009.8
20260508150322 59 125 0.0 0.0 0.00 0.00 0.00 62 1009.7
20260508145813 58 95 0.0 0.0 0.00 0.00 0.00 65 1009.9
20260508145309 57 30 0.0 0.0 0.00 0.00 0.00 64 1010.0
20260508144806 57 82 0.0 0.0 0.00 0.00 0.00 66 1009.7
20260508144304 56 169 0.0 0.0 0.00 0.00 0.00 67 1010.0
20260508143802 56 178 0.0 0.0 0.00 0.00 0.00 70 1010.2
20260508143258 56 108 0.0 0.0 0.00 0.00 0.00 75 1009.8
20260508142755 55 59 0.0 0.0 0.00 0.00 0.00 76 1010.3
20260508142252 55 87 0.0 0.0 0.00 0.00 0.00 78 1010.2
20260508141748 55 44 0.0 0.0 0.00 0.00 0.00 78 1009.9
20260508141246 54 67 0.0 0.0 0.00 0.00 0.00 79 1010.1
20260508140743 54 70 0.0 0.0 0.00 0.00 0.00 80 1009.9
20260508140240 54 102 0.0 0.0 0.00 0.00 0.00 80 1010.2
20260508135735 54 11 0.0 0.0 0.00 0.00 0.00 83 1010.2
20260508135232 53 119 0.0 0.0 0.00 0.00 0.00 83 1010.1
20260508134727 52 44 0.0 0.0 0.00 0.00 0.00 84 1009.9
20260508134225 51 118 0.0 0.0 0.00 0.00 0.00 84 1010.1
20260508133721 51 3 0.0 0.0 0.00 0.00 0.00 86 1009.9
20260508133219 51 351 0.0 0.0 0.00 0.00 0.00 86 1009.8
20260508132717 51 163 0.0 0.0 0.00 0.00 0.00 88 1009.9
20260508132214 50 15 0.0 0.0 0.00 0.00 0.00 89 1009.9
20260508131709 50 22 0.0 0.0 0.00 0.00 0.00 91 1009.9
20260508131206 50 42 0.0 0.0 0.00 0.00 0.00 91 1009.9
20260508130703 49 38 0.0 0.0 0.00 0.00 0.00 92 1009.8
20260508130200 48 57 0.0 0.0 0.00 0.00 0.00 93 1010.0
20260508125655 48 42 0.0 0.0 0.00 0.00 0.00 94 1009.9
20260508125152 47 43 0.0 0.0 0.00 0.00 0.00 94 1010.1
20260508124650 47 30 0.0 0.0 0.00 0.00 0.00 94 1010.2
20260508124147 47 35 0.0 0.0 0.00 0.00 0.00 94 1010.3